Regional Weather Roundup
Issued by NWS

Home | Current Version | Previous Version | Graphics & Text | Print | Product List | Glossary On
Versions: 1 2 3 4 5 6 7 8 9 10 11 12 13 14 15 16 17 18 19 20 21 22 23 24 25 26 27 28 29 30 31 32 33 34 35 36 37 38 39 40 41 42 43 44 45 46 47 48 49 50
000
ASUS43 KFSD 010410
RWRSD

WEATHER ROUNDUP FOR SOUTH DAKOTA
NATIONAL WEATHER SERVICE SIOUX FALLS SD
1100 PM CDT FRI JUL 31 2015

NOTE: "FAIR" INDICATES FEW OR NO CLOUDS BELOW 12,000 FEET WITH NO
SIGNIFICANT WEATHER AND/OR OBSTRUCTIONS TO VISIBILITY.


SDZ001>005-009-010-012>017-010500-
NORTHWEST AND NORTH CENTRAL SOUTH DAKOTA

CITY           SKY/WX    TMP DP  RH WIND       PRES   REMARKS
BUFFALO          N/A     70  48  45 SE10      30.01S
FAITH            N/A     74  43  32 SE13      30.08R
MOBRIDGE       CLEAR     70  58  65 E5        30.02R
$$

SDZ012>016-024>037-041>051-057-063-072>074-010500-
SOUTHWEST AND SOUTH CENTRAL SOUTH DAKOTA

CITY           SKY/WX    TMP DP  RH WIND       PRES   REMARKS
RAPID CTY ARPT CLEAR     68  53  58 S3        30.13R
PIERRE         CLEAR     70  54  56 SE8       30.05R
CUSTER         CLEAR     66  46  48 E5        30.28R
ELLSWORTH AFB  CLEAR     72  54  52 SW5       30.12R
PHILIP         CLEAR     69  58  67 SE7       30.07R
PINE RIDGE     CLEAR     69  53  56 E9        30.13R
SPEARFISH      FAIR      68  50  52 E10       30.16S
WINNER         FAIR      74  60  61 SE9       30.10R
$$

SDZ004>011-016>023-039-040-010500-
NORTHEAST SOUTH DAKOTA

CITY           SKY/WX    TMP DP  RH WIND       PRES   REMARKS
ABERDEEN       CLEAR     65  59  81 CALM      30.02S HAZE
WATERTOWN      CLEAR     67  61  81 SW6       30.04R
BROOKINGS      CLEAR     66  57  72 S8        30.07S
SISSETON         N/A     64  61  90 CALM      29.99R
$$

SDZ017-020-022-023-036>040-048>070-010500-
SOUTHEAST SOUTH DAKOTA

CITY           SKY/WX    TMP DP  RH WIND       PRES   REMARKS
SIOUX FALLS    CLEAR     73  62  68 SW5       30.07R
HURON          CLEAR     74  57  55 SW10      30.04R
CHAMBERLAIN    CLEAR     67  62  83 SE6       30.08R
MITCHELL       CLEAR     73  62  68 S6        30.07R
YANKTON        CLEAR     73  66  78 E6        30.07R
$$

ABBREVIATIONS USED IN REMARKS
   TC - TEMPERATURE IN CELSIUS
  WCI - WIND CHILL INDEX
   HX - HEAT INDEX
  VSB - VISIBILITY




USA.gov is the U.S. government's official web portal to all federal, state and local government web resources and services.